SL-3 DEB, 14209

Orbit data source: Space-Track

SL-3 DEB, 14209 is space debris in SSO originally from a launch on Sun, 24 Jul 1983 UTC launched from the Tyuratam Missile And Space Complex (TTMTR). Debris objects in space refer to the collection of defunct objects orbiting the Earth. Examples of debris include non-operational satellites, rocket bodies, and fragments generated from explosions, collisions, or faulty payload assembly.

Loading next visibility...
Identifier
14209, 1983-075C
Orbit
SSO
Country
Flag of CISCIS
Related business
Manufacturer
Unknown
Mission
Spacecraft
Bus & Motor
Unknown
Mass
Unknown
Launch date (UTC)
1983-07-24 (43 years ago)
Launch vehicle
Unknown
Launch site
Tyuratam Missile And Space Complex (TTMTR)
Object type
Payload
Rocket body
Debris
Shape & HBR
Unknown shape, 0.1 m
Radar Cross Section
Medium (>0.1 m² and <1 m²)

Expand to show TLE details & history
Last TLE update: 2 days ago

TLE from 2 days ago
0 SL-3 DEB
1 14209U 83075C   26171.26547067  .00013051  00000-0  22192-3 0  9992
2 14209  97.2049 161.2773 0015108  43.3344 316.9093 15.51429532354721
Epoch: 2026-06-20T06:22Z
TLE epoch observation values (Epoch: 2026-06-20T06:22:16.665Z)
Latitude
-0.00013°
Longitude
157.22531°
Altitude
408.203 km
Speed
7.67 km/s
True Right ascension
10h 45m 06s
True Declination
0° 00' 00"
Sunlit
Object was in daylight at epoch
Visualization orbit readout
Latitude
Unknown
Longitude
Unknown
Altitude
Unknown
Speed
Unknown
Apparent Right ascension
Unknown
Apparent Declination
Unknown
Sunlit
N/A
Visualization observer readout
Local Sidereal Time
00:51:19
Azimuth
Unknown
Elevation
Unknown
Doppler factor
Unknown
Orbital elements
Apogee altitude
419.722 km
Perigee altitude
399.212 km
Semi-major axis
6,787.604 km
Eccentricity
0.00151
Inclination
97.2049°
RAAN
161.2773°
Arg. of periapsis
43.3344°
True anomaly
316.79087°
Mean anomaly
316.9093°
Eccentric anomaly
316.8501°
Mean motion
3.88122 °/min
Orbital period
92.75 mins
BSTAR
0.00022192

Documentation

Showing up to 5 results
|